date,time,SUV Intensity [MED/Hr],UV Index,Daily total [MED],Since Last [MED]
07/05/2023,00:01:28,0.000,0.0,0.0,0.0
07/05/2023,00:02:28,0.000,0.0,0.0,0.0
07/05/2023,00:03:29,-0.000,0.0,0.0,0.0
07/05/2023,00:04:29,-0.000,0.0,0.0,0.0
07/05/2023,00:05:28,0.000,0.0,0.0,0.0
07/05/2023,00:06:28,0.000,0.0,0.0,0.0
07/05/2023,00:07:28,0.000,0.0,0.0,0.0
07/05/2023,00:08:28,0.000,0.0,0.0,0.0
07/05/2023,00:09:29,0.000,0.0,0.0,0.0
07/05/2023,00:10:28,0.000,0.0,0.0,0.0
07/05/2023,00:11:29,0.000,0.0,0.0,0.0
07/05/2023,00:12:29,0.000,0.0,0.0,0.0
07/05/2023,00:13:28,0.000,0.0,0.0,0.0
07/05/2023,00:14:29,-0.000,0.0,0.0,0.0
07/05/2023,00:15:28,0.000,0.0,0.0,0.0
07/05/2023,00:16:29,0.000,0.0,0.0,0.0
07/05/2023,00:17:29,0.000,0.0,0.0,0.0
07/05/2023,00:18:29,0.000,0.0,0.0,0.0
07/05/2023,00:19:29,0.001,0.0,0.0,0.0
07/05/2023,00:20:28,-0.000,0.0,0.0,0.0
07/05/2023,00:21:28,0.000,0.0,0.0,0.0
07/05/2023,00:22:28,0.000,0.0,0.0,0.0
07/05/2023,00:23:29,0.000,0.0,0.0,0.0
07/05/2023,00:24:28,0.000,0.0,0.0,0.0
07/05/2023,00:25:28,0.000,0.0,0.0,0.0
07/05/2023,00:26:29,-0.000,0.0,0.0,0.0
07/05/2023,00:27:28,0.000,0.0,0.0,0.0
07/05/2023,00:28:28,-0.000,0.0,0.0,0.0
07/05/2023,00:29:29,-0.001,0.0,0.0,0.0
07/05/2023,00:30:29,0.000,0.0,0.0,0.0
07/05/2023,00:31:28,-0.000,0.0,0.0,0.0
07/05/2023,00:32:28,0.000,0.0,0.0,0.0
07/05/2023,00:33:29,-0.001,0.0,0.0,0.0
07/05/2023,00:34:28,0.001,0.0,0.0,0.0
07/05/2023,00:35:28,0.000,0.0,0.0,0.0
07/05/2023,00:36:29,0.001,0.0,0.0,0.0
07/05/2023,00:37:29,0.000,0.0,0.0,0.0
07/05/2023,00:38:28,0.000,0.0,0.0,0.0
07/05/2023,00:39:29,-0.001,0.0,0.0,0.0
07/05/2023,00:40:28,0.000,0.0,0.0,0.0
07/05/2023,00:41:28,-0.000,0.0,0.0,0.0
07/05/2023,00:42:28,0.000,0.0,0.0,0.0
07/05/2023,00:43:29,-0.001,0.0,0.0,0.0
07/05/2023,00:44:28,-0.000,0.0,0.0,0.0
07/05/2023,00:45:29,0.001,0.0,0.0,0.0
07/05/2023,00:46:28,0.000,0.0,0.0,0.0
07/05/2023,00:47:28,0.000,0.0,0.0,0.0
07/05/2023,00:48:28,-0.001,0.0,0.0,0.0
07/05/2023,00:49:28,-0.001,0.0,0.0,0.0
07/05/2023,00:50:29,0.000,0.0,0.0,0.0
07/05/2023,00:51:28,0.000,0.0,0.0,0.0
07/05/2023,00:52:28,0.000,0.0,0.0,0.0
07/05/2023,00:53:28,0.000,0.0,0.0,0.0
07/05/2023,00:54:28,0.000,0.0,0.0,0.0
07/05/2023,00:55:28,-0.001,0.0,0.0,0.0
07/05/2023,00:56:28,0.000,0.0,0.0,0.0
07/05/2023,00:57:29,-0.000,0.0,0.0,0.0
07/05/2023,00:58:29,-0.001,0.0,0.0,0.0
07/05/2023,00:59:29,-0.001,0.0,0.0,0.0
07/05/2023,01:00:29,-0.001,0.0,0.0,0.0
07/05/2023,01:01:29,-0.001,0.0,0.0,0.0
07/05/2023,01:02:28,-0.000,0.0,0.0,0.0
07/05/2023,01:03:29,0.000,0.0,0.0,0.0
07/05/2023,01:04:29,-0.001,0.0,0.0,0.0
07/05/2023,01:05:29,-0.000,0.0,0.0,0.0
07/05/2023,01:06:29,0.000,0.0,0.0,0.0
07/05/2023,01:07:29,-0.000,0.0,0.0,0.0
07/05/2023,01:08:28,0.000,0.0,0.0,0.0
07/05/2023,01:09:29,0.001,0.0,0.0,0.0
07/05/2023,01:10:29,0.001,0.0,0.0,0.0
07/05/2023,01:11:29,0.001,0.0,0.0,0.0
07/05/2023,01:12:29,-0.001,0.0,0.0,0.0
07/05/2023,01:13:28,-0.000,0.0,0.0,0.0
07/05/2023,01:14:28,0.000,0.0,0.0,0.0
07/05/2023,01:15:28,0.000,0.0,0.0,0.0
07/05/2023,01:16:29,-0.000,0.0,0.0,0.0
07/05/2023,01:17:29,0.001,0.0,0.0,0.0
07/05/2023,01:18:29,-0.001,0.0,0.0,0.0
07/05/2023,01:19:29,-0.000,0.0,0.0,0.0
07/05/2023,01:20:29,0.001,0.0,0.0,0.0
07/05/2023,01:21:29,0.001,0.0,0.0,0.0
07/05/2023,01:22:29,0.001,0.0,0.0,0.0
07/05/2023,01:23:28,0.000,0.0,0.0,0.0
07/05/2023,01:24:28,0.000,0.0,0.0,0.0
07/05/2023,01:25:28,0.001,0.0,0.0,0.0
07/05/2023,01:26:29,0.000,0.0,0.0,0.0
07/05/2023,01:27:29,0.000,0.0,0.0,0.0
07/05/2023,01:28:28,0.000,0.0,0.0,0.0
07/05/2023,01:29:28,0.000,0.0,0.0,0.0
07/05/2023,01:30:28,0.001,0.0,0.0,0.0
07/05/2023,01:31:29,-0.001,0.0,0.0,0.0
07/05/2023,01:32:29,0.000,0.0,0.0,0.0
07/05/2023,01:33:29,0.000,0.0,0.0,0.0
07/05/2023,01:34:28,0.001,0.0,0.0,0.0
07/05/2023,01:35:28,0.000,0.0,0.0,0.0
07/05/2023,01:36:28,0.000,0.0,0.0,0.0
07/05/2023,01:37:28,-0.000,0.0,0.0,0.0
07/05/2023,01:38:29,0.000,0.0,0.0,0.0
07/05/2023,01:39:29,0.000,0.0,0.0,0.0
07/05/2023,01:40:29,-0.001,0.0,0.0,0.0
07/05/2023,01:41:29,0.000,0.0,0.0,0.0
07/05/2023,01:42:28,0.001,0.0,0.0,0.0
07/05/2023,01:43:28,0.000,0.0,0.0,0.0
07/05/2023,01:44:29,0.000,0.0,0.0,0.0
07/05/2023,01:45:29,0.000,0.0,0.0,0.0
07/05/2023,01:46:29,0.000,0.0,0.0,0.0
07/05/2023,01:47:29,-0.000,0.0,0.0,0.0
07/05/2023,01:48:29,0.000,0.0,0.0,0.0
07/05/2023,01:49:29,0.000,0.0,0.0,0.0
07/05/2023,01:50:29,0.001,0.0,0.0,0.0
07/05/2023,01:51:29,-0.001,0.0,0.0,0.0
07/05/2023,01:52:28,0.000,0.0,0.0,0.0
07/05/2023,01:53:29,-0.000,0.0,0.0,0.0
07/05/2023,01:54:29,0.000,0.0,0.0,0.0
07/05/2023,01:55:29,0.000,0.0,0.0,0.0
07/05/2023,01:56:28,-0.001,0.0,0.0,0.0
07/05/2023,01:57:28,0.000,0.0,0.0,0.0
07/05/2023,01:58:29,0.000,0.0,0.0,0.0
07/05/2023,01:59:29,0.000,0.0,0.0,0.0
07/05/2023,02:00:29,-0.000,0.0,0.0,0.0
07/05/2023,02:01:29,0.000,0.0,0.0,0.0
07/05/2023,02:02:29,0.000,0.0,0.0,0.0
07/05/2023,02:03:28,-0.000,0.0,0.0,0.0
07/05/2023,02:04:29,0.000,0.0,0.0,0.0
07/05/2023,02:05:28,0.000,0.0,0.0,0.0
07/05/2023,02:06:29,-0.001,0.0,0.0,0.0
07/05/2023,02:07:29,-0.000,0.0,0.0,0.0
07/05/2023,02:08:29,0.000,0.0,0.0,0.0
07/05/2023,02:09:29,0.000,0.0,0.0,0.0
07/05/2023,02:10:29,0.000,0.0,0.0,0.0
07/05/2023,02:11:28,-0.000,0.0,0.0,0.0
07/05/2023,02:12:28,0.001,0.0,0.0,0.0
07/05/2023,02:13:29,0.001,0.0,0.0,0.0
07/05/2023,02:14:29,-0.001,0.0,0.0,0.0
07/05/2023,02:15:28,0.000,0.0,0.0,0.0
07/05/2023,02:16:29,0.000,0.0,0.0,0.0
07/05/2023,02:17:29,0.000,0.0,0.0,0.0
07/05/2023,02:18:29,-0.000,0.0,0.0,0.0
07/05/2023,02:19:28,0.001,0.0,0.0,0.0
07/05/2023,02:20:29,0.001,0.0,0.0,0.0
07/05/2023,02:21:29,-0.001,0.0,0.0,0.0
07/05/2023,02:22:28,0.000,0.0,0.0,0.0
07/05/2023,02:23:29,0.000,0.0,0.0,0.0
07/05/2023,02:24:28,-0.001,0.0,0.0,0.0
07/05/2023,02:25:28,0.000,0.0,0.0,0.0
07/05/2023,02:26:28,0.001,0.0,0.0,0.0
07/05/2023,02:27:29,-0.001,0.0,0.0,0.0
07/05/2023,02:28:30,-0.001,0.0,0.0,0.0
07/05/2023,02:29:29,0.000,0.0,0.0,0.0
07/05/2023,02:30:29,-0.001,0.0,0.0,0.0
07/05/2023,02:31:29,0.000,0.0,0.0,0.0
07/05/2023,02:32:28,0.000,0.0,0.0,0.0
07/05/2023,02:33:29,0.000,0.0,0.0,0.0
07/05/2023,02:34:29,-0.000,0.0,0.0,0.0
07/05/2023,02:35:29,0.000,0.0,0.0,0.0
07/05/2023,02:36:28,0.000,0.0,0.0,0.0
07/05/2023,02:37:28,0.000,0.0,0.0,0.0
07/05/2023,02:38:28,0.000,0.0,0.0,0.0
07/05/2023,02:39:29,0.001,0.0,0.0,0.0
07/05/2023,02:40:29,0.001,0.0,0.0,0.0
07/05/2023,02:41:29,0.000,0.0,0.0,0.0
07/05/2023,02:42:29,0.000,0.0,0.0,0.0
07/05/2023,02:43:29,0.000,0.0,0.0,0.0
07/05/2023,02:44:29,0.001,0.0,0.0,0.0
07/05/2023,02:45:28,0.000,0.0,0.0,0.0
07/05/2023,02:46:28,0.000,0.0,0.0,0.0
07/05/2023,02:47:28,0.000,0.0,0.0,0.0
07/05/2023,02:48:29,0.001,0.0,0.0,0.0
07/05/2023,02:49:28,0.000,0.0,0.0,0.0
07/05/2023,02:50:28,0.001,0.0,0.0,0.0
07/05/2023,02:51:28,0.000,0.0,0.0,0.0
07/05/2023,02:52:28,-0.001,0.0,0.0,0.0
07/05/2023,02:53:29,-0.001,0.0,0.0,0.0
07/05/2023,02:54:29,0.000,0.0,0.0,0.0
07/05/2023,02:55:29,-0.001,0.0,0.0,0.0
07/05/2023,02:56:29,0.000,0.0,0.0,0.0
07/05/2023,02:57:29,0.001,0.0,0.0,0.0
07/05/2023,02:58:29,-0.001,0.0,0.0,0.0
07/05/2023,02:59:29,0.000,0.0,0.0,0.0
07/05/2023,03:00:29,0.000,0.0,0.0,0.0
07/05/2023,03:01:28,0.000,0.0,0.0,0.0
07/05/2023,03:02:29,0.000,0.0,0.0,0.0
07/05/2023,03:03:29,0.001,0.0,0.0,0.0
07/05/2023,03:04:29,0.000,0.0,0.0,0.0
07/05/2023,03:05:28,0.000,0.0,0.0,0.0
07/05/2023,03:06:29,0.001,0.0,0.0,0.0
07/05/2023,03:07:29,0.000,0.0,0.0,0.0
07/05/2023,03:08:29,-0.001,0.0,0.0,0.0
07/05/2023,03:09:29,0.000,0.0,0.0,0.0
07/05/2023,03:10:29,-0.001,0.0,0.0,0.0
07/05/2023,03:11:29,0.000,0.0,0.0,0.0
07/05/2023,03:12:29,-0.000,0.0,0.0,0.0
07/05/2023,03:13:29,0.000,0.0,0.0,0.0
07/05/2023,03:14:28,0.000,0.0,0.0,0.0
07/05/2023,03:15:29,0.001,0.0,0.0,0.0
07/05/2023,03:16:29,0.000,0.0,0.0,0.0
07/05/2023,03:17:28,0.001,0.0,0.0,0.0
07/05/2023,03:18:28,-0.001,0.0,0.0,0.0
07/05/2023,03:19:28,0.000,0.0,0.0,0.0
07/05/2023,03:20:29,0.000,0.0,0.0,0.0
07/05/2023,03:21:29,0.000,0.0,0.0,0.0
07/05/2023,03:22:29,-0.001,0.0,0.0,0.0
07/05/2023,03:23:29,0.000,0.0,0.0,0.0
07/05/2023,03:24:29,0.001,0.0,0.0,0.0
07/05/2023,03:25:28,0.001,0.0,0.0,0.0
07/05/2023,03:26:29,-0.001,0.0,0.0,0.0
07/05/2023,03:27:29,0.001,0.0,0.0,0.0
07/05/2023,03:28:28,0.001,0.0,0.0,0.0
07/05/2023,03:29:28,0.000,0.0,0.0,0.0
07/05/2023,03:30:29,0.000,0.0,0.0,0.0
07/05/2023,03:31:29,-0.001,0.0,0.0,0.0
07/05/2023,03:32:29,0.000,0.0,0.0,0.0
07/05/2023,03:33:29,0.000,0.0,0.0,0.0
07/05/2023,03:34:29,0.000,0.0,0.0,0.0
07/05/2023,03:35:28,0.000,0.0,0.0,0.0
07/05/2023,03:36:29,0.000,0.0,0.0,0.0
07/05/2023,03:37:29,-0.000,0.0,0.0,0.0
07/05/2023,03:38:29,0.000,0.0,0.0,0.0
07/05/2023,03:39:29,-0.001,0.0,0.0,0.0
07/05/2023,03:40:29,0.000,0.0,0.0,0.0
07/05/2023,03:41:29,-0.001,0.0,0.0,0.0
07/05/2023,03:42:29,0.001,0.0,0.0,0.0
07/05/2023,03:43:28,0.000,0.0,0.0,0.0
07/05/2023,03:44:28,0.000,0.0,0.0,0.0
07/05/2023,03:45:28,0.000,0.0,0.0,0.0
07/05/2023,03:46:29,0.001,0.0,0.0,0.0
07/05/2023,03:47:29,0.001,0.0,0.0,0.0
07/05/2023,03:48:29,0.000,0.0,0.0,0.0
07/05/2023,03:49:29,0.000,0.0,0.0,0.0
07/05/2023,03:50:29,0.001,0.0,0.0,0.0
07/05/2023,03:51:28,0.001,0.0,0.0,0.0
07/05/2023,03:52:29,0.000,0.0,0.0,0.0
07/05/2023,03:53:29,0.000,0.0,0.0,0.0
07/05/2023,03:54:28,0.000,0.0,0.0,0.0
07/05/2023,03:55:28,-0.001,0.0,0.0,0.0
07/05/2023,03:56:29,0.000,0.0,0.0,0.0
07/05/2023,03:57:29,0.000,0.0,0.0,0.0
07/05/2023,03:58:29,0.000,0.0,0.0,0.0
07/05/2023,03:59:29,-0.000,0.0,0.0,0.0
07/05/2023,04:00:29,-0.001,0.0,0.0,0.0
07/05/2023,04:01:29,-0.001,0.0,0.0,0.0
07/05/2023,04:02:29,-0.001,0.0,0.0,0.0
07/05/2023,04:03:29,0.000,0.0,0.0,0.0
07/05/2023,04:04:29,0.000,0.0,0.0,0.0
07/05/2023,04:05:29,0.000,0.0,0.0,0.0
07/05/2023,04:06:29,0.000,0.0,0.0,0.0
07/05/2023,04:07:29,0.000,0.0,0.0,0.0
07/05/2023,04:08:29,0.000,0.0,0.0,0.0
07/05/2023,04:09:29,0.001,0.0,0.0,0.0
07/05/2023,04:10:30,0.001,0.0,0.0,0.0
07/05/2023,04:11:29,0.000,0.0,0.0,0.0
07/05/2023,04:12:58,0.001,0.0,0.0,0.0
07/05/2023,04:14:29,0.000,0.0,0.0,0.0
07/05/2023,04:15:29,0.001,0.0,0.0,0.0
07/05/2023,04:16:29,0.001,0.0,0.0,0.0
07/05/2023,04:17:28,0.001,0.0,0.0,0.0
07/05/2023,04:18:29,0.001,0.0,0.0,0.0
07/05/2023,04:19:29,0.001,0.0,0.0,0.0
07/05/2023,04:20:29,0.002,0.0,0.0,0.0
07/05/2023,04:21:29,-0.000,0.0,0.0,0.0
07/05/2023,04:22:29,0.001,0.0,0.0,0.0
07/05/2023,04:23:29,0.000,0.0,0.0,0.0
07/05/2023,04:24:29,0.001,0.0,0.0,0.0
07/05/2023,04:25:28,0.000,0.0,0.0,0.0
07/05/2023,04:26:29,0.002,0.0,0.0,0.0
07/05/2023,04:27:29,0.001,0.0,0.0,0.0
07/05/2023,04:28:29,0.001,0.0,0.0,0.0
07/05/2023,04:29:29,0.001,0.0,0.0,0.0
07/05/2023,04:30:29,0.001,0.0,0.0,0.0
07/05/2023,04:31:29,0.002,0.0,0.0,0.0
07/05/2023,04:32:29,0.002,0.0,0.0,0.0
07/05/2023,04:33:29,0.001,0.0,0.0,0.0
07/05/2023,04:34:29,0.002,0.0,0.0,0.0
07/05/2023,04:35:29,0.002,0.0,0.0,0.0
07/05/2023,04:36:29,0.002,0.0,0.0,0.0
07/05/2023,04:37:29,0.002,0.0,0.0,0.0
07/05/2023,04:38:29,0.001,0.0,0.0,0.0
07/05/2023,04:39:29,0.002,0.0,0.0,0.0
07/05/2023,04:40:29,0.002,0.0,0.0,0.0
07/05/2023,04:41:29,0.002,0.0,0.0,0.0
07/05/2023,04:42:29,0.002,0.0,0.0,0.0
07/05/2023,04:43:28,0.003,0.0,0.0,0.0
07/05/2023,04:44:28,0.003,0.0,0.0,0.0
07/05/2023,04:45:28,0.002,0.0,0.0,0.0
07/05/2023,04:46:29,0.003,0.0,0.0,0.0
07/05/2023,04:47:29,0.003,0.0,0.0,0.0
07/05/2023,04:48:29,0.003,0.0,0.0,0.0
07/05/2023,04:49:29,0.004,0.0,0.0,0.0
07/05/2023,04:50:29,0.004,0.0,0.0,0.0
07/05/2023,04:51:29,0.004,0.0,0.0,0.0
07/05/2023,04:52:29,0.004,0.0,0.0,0.0
07/05/2023,04:53:29,0.004,0.0,0.0,0.0
07/05/2023,04:54:28,0.003,0.0,0.0,0.0
07/05/2023,04:55:29,0.004,0.0,0.0,0.0
07/05/2023,04:56:28,0.004,0.0,0.0,0.0
07/05/2023,04:57:29,0.004,0.0,0.0,0.0
07/05/2023,04:58:29,0.004,0.0,0.0,0.0
07/05/2023,04:59:29,0.004,0.0,0.0,0.0
07/05/2023,05:00:29,0.005,0.0,0.0,0.0
07/05/2023,05:01:28,0.005,0.0,0.0,0.0
07/05/2023,05:02:28,0.005,0.0,0.0,0.0
07/05/2023,05:03:29,0.005,0.0,0.0,0.0
07/05/2023,05:04:29,0.006,0.0,0.0,0.0
07/05/2023,05:05:29,0.005,0.0,0.0,0.0
07/05/2023,05:06:29,0.006,0.0,0.0,0.0
07/05/2023,05:07:29,0.006,0.0,0.0,0.0
07/05/2023,05:08:29,0.006,0.0,0.0,0.0
07/05/2023,05:09:28,0.006,0.0,0.0,0.0
07/05/2023,05:10:29,0.005,0.0,0.0,0.0
07/05/2023,05:11:29,0.007,0.0,0.0,0.0
07/05/2023,05:12:29,0.007,0.0,0.0,0.0
07/05/2023,05:13:29,0.007,0.0,0.001,0.001
07/05/2023,05:14:29,0.006,0.0,0.001,0.0
07/05/2023,05:15:29,0.007,0.0,0.001,0.0
07/05/2023,05:16:29,0.007,0.0,0.001,0.0
07/05/2023,05:17:29,0.008,0.0,0.001,0.0
07/05/2023,05:18:29,0.008,0.0,0.001,0.0
07/05/2023,05:19:29,0.008,0.0,0.001,0.0
07/05/2023,05:20:29,0.008,0.0,0.001,0.0
07/05/2023,05:21:29,0.009,0.0,0.002,0.001
07/05/2023,05:22:29,0.009,0.0,0.002,0.0
07/05/2023,05:23:29,0.008,0.0,0.002,0.0
07/05/2023,05:24:29,0.009,0.0,0.002,0.0
07/05/2023,05:25:29,0.009,0.0,0.002,0.0
07/05/2023,05:26:28,0.010,0.0,0.002,0.0
07/05/2023,05:27:29,0.010,0.0,0.003,0.001
07/05/2023,05:28:30,0.010,0.0,0.003,0.0
07/05/2023,05:29:30,0.010,0.0,0.003,0.0
07/05/2023,05:30:29,0.010,0.0,0.003,0.0
07/05/2023,05:31:29,0.011,0.0,0.003,0.0
07/05/2023,05:32:29,0.010,0.0,0.003,0.0
07/05/2023,05:33:29,0.011,0.0,0.004,0.001
07/05/2023,05:34:29,0.011,0.0,0.004,0.0
07/05/2023,05:35:31,0.011,0.0,0.004,0.0
07/05/2023,05:36:29,0.011,0.0,0.004,0.0
07/05/2023,05:37:29,0.011,0.0,0.004,0.0
07/05/2023,05:38:29,0.011,0.0,0.004,0.0
07/05/2023,05:39:29,0.012,0.0,0.005,0.001
07/05/2023,05:40:29,0.012,0.0,0.005,0.0
07/05/2023,05:41:29,0.012,0.0,0.005,0.0
07/05/2023,05:42:29,0.012,0.0,0.005,0.0
07/05/2023,05:43:29,0.013,0.0,0.005,0.0
07/05/2023,05:44:29,0.013,0.0,0.006,0.001
07/05/2023,05:45:29,0.014,0.0,0.006,0.0
07/05/2023,05:46:30,0.015,0.0,0.006,0.0
07/05/2023,05:47:29,0.015,0.0,0.006,0.0
07/05/2023,05:48:29,0.016,0.0,0.007,0.001
07/05/2023,05:49:29,0.016,0.0,0.007,0.0
07/05/2023,05:50:29,0.017,0.0,0.007,0.0
07/05/2023,05:51:29,0.019,0.0,0.007,0.0
07/05/2023,05:52:28,0.020,0.0,0.008,0.001
07/05/2023,05:53:29,0.020,0.0,0.008,0.0
07/05/2023,05:54:29,0.020,0.0,0.008,0.0
07/05/2023,05:55:28,0.021,0.0,0.009,0.001
07/05/2023,05:56:29,0.021,0.0,0.009,0.0
07/05/2023,05:57:29,0.022,0.0,0.009,0.0
07/05/2023,05:58:29,0.022,0.0,0.01,0.001
07/05/2023,05:59:29,0.021,0.0,0.01,0.0
07/05/2023,06:00:29,0.021,0.0,0.011,0.001
07/05/2023,06:01:29,0.023,0.0,0.011,0.0
07/05/2023,06:02:29,0.022,0.0,0.011,0.0
07/05/2023,06:03:29,0.024,0.0,0.012,0.001
07/05/2023,06:04:29,0.023,0.0,0.012,0.0
07/05/2023,06:05:29,0.022,0.0,0.012,0.0
07/05/2023,06:06:29,0.023,0.0,0.013,0.001
07/05/2023,06:07:29,0.023,0.0,0.013,0.0
07/05/2023,06:08:29,0.024,0.0,0.014,0.001
07/05/2023,06:09:29,0.025,0.0,0.014,0.0
07/05/2023,06:10:29,0.025,0.0,0.014,0.0
07/05/2023,06:11:29,0.026,0.0,0.015,0.001
07/05/2023,06:12:29,0.027,0.0,0.015,0.0
07/05/2023,06:13:29,0.026,0.0,0.016,0.001
07/05/2023,06:14:29,0.026,0.0,0.016,0.0
07/05/2023,06:15:29,0.028,0.0,0.017,0.001
07/05/2023,06:16:29,0.032,0.0,0.017,0.0
07/05/2023,06:17:29,0.036,0.0,0.018,0.001
07/05/2023,06:18:29,0.039,0.0,0.018,0.0
07/05/2023,06:19:29,0.041,0.0,0.019,0.001
07/05/2023,06:20:29,0.042,0.0,0.02,0.001
07/05/2023,06:21:29,0.042,0.0,0.02,0.0
07/05/2023,06:22:30,0.044,0.0,0.021,0.001
07/05/2023,06:23:29,0.046,0.0,0.022,0.001
07/05/2023,06:24:29,0.046,0.0,0.023,0.001
07/05/2023,06:25:29,0.045,0.0,0.023,0.0
07/05/2023,06:26:29,0.045,0.0,0.024,0.001
07/05/2023,06:27:29,0.045,0.0,0.025,0.001
07/05/2023,06:28:29,0.047,0.0,0.026,0.001
07/05/2023,06:29:29,0.048,0.0,0.026,0.0
07/05/2023,06:30:29,0.050,0.0,0.027,0.001
07/05/2023,06:31:29,0.051,0.0,0.028,0.001
07/05/2023,06:32:29,0.052,0.0,0.029,0.001
07/05/2023,06:33:29,0.052,0.0,0.03,0.001
07/05/2023,06:34:29,0.051,0.0,0.031,0.001
07/05/2023,06:35:29,0.051,0.0,0.031,0.0
07/05/2023,06:36:29,0.054,0.0,0.032,0.001
07/05/2023,06:37:29,0.058,0.0,0.033,0.001
07/05/2023,06:38:29,0.059,0.0,0.034,0.001
07/05/2023,06:39:29,0.059,0.0,0.035,0.001
07/05/2023,06:40:29,0.061,0.0,0.036,0.001
07/05/2023,06:41:29,0.061,0.0,0.037,0.001
07/05/2023,06:42:29,0.060,0.0,0.038,0.001
07/05/2023,06:43:29,0.063,0.0,0.039,0.001
07/05/2023,06:44:29,0.063,0.0,0.04,0.001
07/05/2023,06:45:29,0.063,0.0,0.041,0.001
07/05/2023,06:46:29,0.064,0.0,0.043,0.002
07/05/2023,06:47:29,0.064,0.0,0.044,0.001
07/05/2023,06:48:29,0.064,0.0,0.045,0.001
07/05/2023,06:49:29,0.064,0.0,0.046,0.001
07/05/2023,06:50:29,0.064,0.0,0.047,0.001
07/05/2023,06:51:30,0.064,0.0,0.048,0.001
07/05/2023,06:52:29,0.065,0.0,0.049,0.001
07/05/2023,06:53:29,0.065,0.0,0.05,0.001
07/05/2023,06:54:29,0.064,0.0,0.051,0.001
07/05/2023,06:55:28,0.062,0.0,0.052,0.001
07/05/2023,06:56:51,0.060,0.0,0.054,0.002
07/05/2023,06:58:29,0.061,0.0,0.055,0.001
07/05/2023,06:59:29,0.061,0.0,0.056,0.001
07/05/2023,07:00:29,0.060,0.0,0.057,0.001
07/05/2023,07:01:29,0.060,0.0,0.058,0.001
07/05/2023,07:02:29,0.061,0.0,0.059,0.001
07/05/2023,07:03:29,0.062,0.0,0.06,0.001
07/05/2023,07:04:29,0.061,0.0,0.061,0.001
07/05/2023,07:05:29,0.060,0.0,0.062,0.001
07/05/2023,07:06:29,0.060,0.0,0.063,0.001
07/05/2023,07:07:29,0.060,0.0,0.064,0.001
07/05/2023,07:08:29,0.059,0.0,0.065,0.001
07/05/2023,07:09:29,0.061,0.0,0.066,0.001
07/05/2023,07:10:29,0.064,0.0,0.067,0.001
07/05/2023,07:11:30,0.071,0.0,0.068,0.001
07/05/2023,07:12:29,0.078,0.0,0.07,0.002
07/05/2023,07:13:29,0.084,0.0,0.071,0.001
07/05/2023,07:14:29,0.089,0.0,0.072,0.001
07/05/2023,07:15:29,0.092,0.0,0.074,0.002
07/05/2023,07:16:29,0.094,0.0,0.075,0.001
07/05/2023,07:17:29,0.094,0.0,0.077,0.002
07/05/2023,07:18:29,0.094,0.0,0.079,0.002
07/05/2023,07:19:28,0.087,0.0,0.08,0.001
07/05/2023,07:20:29,0.083,0.0,0.081,0.001
07/05/2023,07:21:29,0.081,0.0,0.083,0.002
07/05/2023,07:22:29,0.083,0.0,0.084,0.001
07/05/2023,07:23:29,0.090,0.0,0.086,0.002
07/05/2023,07:24:29,0.096,0.0,0.087,0.001
07/05/2023,07:25:29,0.103,0.0,0.089,0.002
07/05/2023,07:26:29,0.108,0.0,0.091,0.002
07/05/2023,07:27:30,0.109,0.0,0.092,0.001
07/05/2023,07:28:29,0.108,0.0,0.094,0.002
07/05/2023,07:29:29,0.104,0.0,0.096,0.002
07/05/2023,07:30:29,0.103,0.0,0.098,0.002
07/05/2023,07:31:29,0.105,0.0,0.099,0.001
07/05/2023,07:32:29,0.108,0.0,0.101,0.002
07/05/2023,07:33:29,0.113,0.0,0.103,0.002
07/05/2023,07:34:29,0.119,0.0,0.105,0.002
07/05/2023,07:35:29,0.123,0.0,0.107,0.002
07/05/2023,07:36:29,0.127,0.0,0.109,0.002
07/05/2023,07:37:29,0.126,0.0,0.111,0.002
07/05/2023,07:38:29,0.122,0.0,0.113,0.002
07/05/2023,07:39:29,0.120,0.0,0.115,0.002
07/05/2023,07:40:29,0.117,0.0,0.117,0.002
07/05/2023,07:41:29,0.119,0.0,0.119,0.002
07/05/2023,07:42:29,0.123,0.0,0.121,0.002
07/05/2023,07:43:29,0.130,0.0,0.123,0.002
07/05/2023,07:44:30,0.132,0.0,0.126,0.003
07/05/2023,07:45:30,0.134,0.0,0.128,0.002
07/05/2023,07:46:29,0.134,0.0,0.13,0.002
07/05/2023,07:47:29,0.135,0.0,0.132,0.002
07/05/2023,07:48:29,0.138,0.0,0.135,0.003
07/05/2023,07:49:29,0.141,0.0,0.137,0.002
07/05/2023,07:50:29,0.144,0.0,0.139,0.002
07/05/2023,07:51:29,0.144,0.0,0.142,0.003
07/05/2023,07:52:29,0.149,0.0,0.144,0.002
07/05/2023,07:53:29,0.153,0.0,0.147,0.003
07/05/2023,07:54:29,0.161,0.0,0.149,0.002
07/05/2023,07:55:30,0.170,0.0,0.152,0.003
07/05/2023,07:56:29,0.179,0.0,0.155,0.003
07/05/2023,07:57:29,0.188,0.0,0.158,0.003
07/05/2023,07:58:30,0.195,0.0,0.161,0.003
07/05/2023,07:59:29,0.197,0.0,0.165,0.004
07/05/2023,08:00:29,0.202,0.0,0.168,0.003
07/05/2023,08:01:29,0.217,0.0,0.171,0.003
07/05/2023,08:02:30,0.234,1.0,0.175,0.004
07/05/2023,08:03:29,0.242,1.0,0.179,0.004
07/05/2023,08:04:29,0.248,1.0,0.183,0.004
07/05/2023,08:05:29,0.256,1.0,0.187,0.004
07/05/2023,08:06:29,0.262,1.0,0.192,0.005
07/05/2023,08:07:29,0.255,1.0,0.196,0.004
07/05/2023,08:08:30,0.242,1.0,0.2,0.004
07/05/2023,08:09:30,0.229,1.0,0.204,0.004
07/05/2023,08:10:29,0.217,0.0,0.208,0.004
07/05/2023,08:11:29,0.212,0.0,0.211,0.003
07/05/2023,08:12:29,0.212,0.0,0.215,0.004
07/05/2023,08:13:29,0.214,0.0,0.218,0.003
07/05/2023,08:14:30,0.216,0.0,0.222,0.004
07/05/2023,08:15:29,0.199,0.0,0.226,0.004
07/05/2023,08:16:30,0.171,0.0,0.229,0.003
07/05/2023,08:17:29,0.154,0.0,0.231,0.002
07/05/2023,08:18:29,0.159,0.0,0.234,0.003
07/05/2023,08:19:29,0.179,0.0,0.237,0.003
07/05/2023,08:20:29,0.184,0.0,0.24,0.003
07/05/2023,08:21:29,0.182,0.0,0.243,0.003
07/05/2023,08:22:29,0.188,0.0,0.246,0.003
07/05/2023,08:23:29,0.198,0.0,0.249,0.003
07/05/2023,08:24:29,0.206,0.0,0.252,0.003
07/05/2023,08:25:30,0.216,0.0,0.256,0.004
07/05/2023,08:26:29,0.233,1.0,0.26,0.004
07/05/2023,08:27:30,0.245,1.0,0.264,0.004
07/05/2023,08:28:29,0.250,1.0,0.268,0.004
07/05/2023,08:29:30,0.245,1.0,0.272,0.004
07/05/2023,08:30:29,0.234,1.0,0.276,0.004
07/05/2023,08:31:29,0.225,1.0,0.28,0.004
07/05/2023,08:32:29,0.213,0.0,0.283,0.003
07/05/2023,08:33:29,0.205,0.0,0.287,0.004
07/05/2023,08:34:30,0.197,0.0,0.29,0.003
07/05/2023,08:35:30,0.193,0.0,0.293,0.003
07/05/2023,08:36:29,0.190,0.0,0.297,0.004
07/05/2023,08:37:30,0.185,0.0,0.3,0.003
07/05/2023,08:38:29,0.184,0.0,0.303,0.003
07/05/2023,08:39:30,0.186,0.0,0.306,0.003
07/05/2023,08:40:29,0.192,0.0,0.309,0.003
07/05/2023,08:41:30,0.202,0.0,0.312,0.003
07/05/2023,08:42:30,0.215,0.0,0.316,0.004
07/05/2023,08:43:29,0.237,1.0,0.32,0.004
07/05/2023,08:44:29,0.265,1.0,0.324,0.004
07/05/2023,08:45:29,0.298,1.0,0.328,0.004
07/05/2023,08:46:29,0.334,1.0,0.334,0.006
07/05/2023,08:47:51,0.384,1.0,0.342,0.008
07/05/2023,08:49:30,0.444,1.0,0.353,0.011
07/05/2023,08:50:30,0.477,1.0,0.361,0.008
07/05/2023,08:51:29,0.507,1.0,0.369,0.008
07/05/2023,08:52:29,0.535,1.0,0.377,0.008
07/05/2023,08:53:29,0.564,1.0,0.387,0.01
07/05/2023,08:54:29,0.593,1.0,0.396,0.009
07/05/2023,08:55:29,0.612,1.0,0.407,0.011
07/05/2023,08:56:29,0.628,1.0,0.417,0.01
07/05/2023,08:57:30,0.644,1.0,0.428,0.011
07/05/2023,08:58:29,0.661,2.0,0.438,0.01
07/05/2023,08:59:30,0.684,2.0,0.45,0.012
07/05/2023,09:00:30,0.716,2.0,0.461,0.011
07/05/2023,09:01:29,0.760,2.0,0.473,0.012
07/05/2023,09:02:29,0.846,2.0,0.487,0.014
07/05/2023,09:03:29,0.917,2.0,0.502,0.015
07/05/2023,09:04:29,0.991,2.0,0.518,0.016
07/05/2023,09:05:29,1.021,2.0,0.536,0.018
07/05/2023,09:06:29,1.203,3.0,0.553,0.017
07/05/2023,09:07:29,0.957,2.0,0.57,0.017
07/05/2023,09:08:29,0.885,2.0,0.587,0.017
07/05/2023,09:09:29,0.759,2.0,0.6,0.013
07/05/2023,09:10:29,0.697,2.0,0.612,0.012
07/05/2023,09:11:29,0.666,2.0,0.623,0.011
07/05/2023,09:12:29,0.651,1.0,0.635,0.012
07/05/2023,09:13:30,0.643,1.0,0.645,0.01
07/05/2023,09:14:30,0.627,1.0,0.656,0.011
07/05/2023,09:15:29,0.609,1.0,0.666,0.01
07/05/2023,09:16:29,0.593,1.0,0.676,0.01
07/05/2023,09:17:30,0.585,1.0,0.686,0.01
07/05/2023,09:18:29,0.581,1.0,0.695,0.009
07/05/2023,09:19:29,0.581,1.0,0.705,0.01
07/05/2023,09:20:30,0.585,1.0,0.715,0.01
07/05/2023,09:21:29,0.585,1.0,0.725,0.01
07/05/2023,09:22:29,0.579,1.0,0.735,0.01
07/05/2023,09:23:30,0.567,1.0,0.744,0.009
07/05/2023,09:24:30,0.558,1.0,0.753,0.009
07/05/2023,09:25:29,0.568,1.0,0.763,0.01
07/05/2023,09:26:29,0.605,1.0,0.772,0.009
07/05/2023,09:27:29,0.648,1.0,0.783,0.011
07/05/2023,09:28:29,0.667,2.0,0.794,0.011
07/05/2023,09:29:30,0.675,2.0,0.805,0.011
07/05/2023,09:30:30,0.680,2.0,0.817,0.012
07/05/2023,09:31:30,0.686,2.0,0.828,0.011
07/05/2023,09:32:29,0.692,2.0,0.839,0.011
07/05/2023,09:33:29,0.709,2.0,0.851,0.012
07/05/2023,09:34:30,0.724,2.0,0.863,0.012
07/05/2023,09:35:30,0.731,2.0,0.875,0.012
07/05/2023,09:36:29,0.741,2.0,0.887,0.012
07/05/2023,09:37:30,0.750,2.0,0.9,0.013
07/05/2023,09:38:30,0.761,2.0,0.913,0.013
07/05/2023,09:39:29,0.774,2.0,0.925,0.012
07/05/2023,09:40:29,0.781,2.0,0.938,0.013
07/05/2023,09:41:29,0.772,2.0,0.951,0.013
07/05/2023,09:42:29,0.751,2.0,0.964,0.013
07/05/2023,09:43:30,0.719,2.0,0.976,0.012
07/05/2023,09:44:30,0.691,2.0,0.988,0.012
07/05/2023,09:45:30,0.660,2.0,0.999,0.011
07/05/2023,09:46:30,0.645,1.0,1.01,0.011
07/05/2023,09:47:29,0.649,1.0,1.02,0.01
07/05/2023,09:48:29,0.660,2.0,1.031,0.011
07/05/2023,09:49:29,0.662,2.0,1.043,0.012
07/05/2023,09:50:29,0.661,2.0,1.053,0.01
07/05/2023,09:51:29,0.661,2.0,1.065,0.012
07/05/2023,09:52:30,0.677,2.0,1.076,0.011
07/05/2023,09:53:30,0.695,2.0,1.087,0.011
07/05/2023,09:54:30,0.699,2.0,1.099,0.012
07/05/2023,09:55:30,0.690,2.0,1.111,0.012
07/05/2023,09:56:29,0.683,2.0,1.122,0.011
07/05/2023,09:57:30,0.696,2.0,1.133,0.011
07/05/2023,09:58:30,0.724,2.0,1.145,0.012
07/05/2023,09:59:29,0.729,2.0,1.157,0.012
07/05/2023,10:00:29,0.706,2.0,1.169,0.012
07/05/2023,10:01:29,0.661,2.0,1.181,0.012
07/05/2023,10:02:29,0.616,1.0,1.191,0.01
07/05/2023,10:03:29,0.590,1.0,1.201,0.01
07/05/2023,10:04:29,0.581,1.0,1.211,0.01